Location: ??
(35.5052°N, 139.7262°E)
Time: 02:20:38
(UTC+00:00)

H-2A R/B - Pass Details

Date: 20 June 2021
Orbit: 574 x 597 km, 98.2° (Epoch: 26 July)

Event Time Altitude Azimuth Distance (km) Brightness Sun altitude
Rises 12:51:19 0° 7° (N) 2,788 7.7 -25.4°
Reaches altitude 10° 12:53:29 10° 4° (N) 1,886 6.8 -25.6°
Enters shadow 12:57:15 56° 302° (WNW) 687 3.9 -26.0°
